{"data":{"norad_id":64482,"intl_designator":"2025-133L","name":"STARLINK-34527","alt_names":[],"object_type":"PAYLOAD","status":"ACTIVE","operator":null,"country":"US","launch_date":"2025-06-23","launch_site_code":"AFETR","launch_vehicle":null,"mission":null,"orbit_class":"UNKNOWN","rcs_meters":null,"size_class":null,"mass_kg":null,"dimensions":null,"purposes":["comms"],"wikipedia_slug":null,"has_3d_model":false,"image_url":null,"decayed_at":null,"tle_current":{"epoch":"2026-09-20T09:22:23.458656Z","epoch_age_seconds":140641,"freshness":"FRESH","line1":"1 64482U 25133L   26263.39054929  .00009852  00000+0  30238-3 0  9990","line2":"2 64482  53.1581 289.9063 0001269  87.4858 272.6290 15.34393935 71027","mean_motion":15.34393935,"eccentricity":0.0001269,"inclination_deg":53.1581,"raan_deg":289.9063,"arg_perigee_deg":87.4858,"mean_anomaly_deg":272.629,"bstar":0.00030238,"rev_number":7102,"period_min":93.848129033435,"perigee_km":461.85316181058,"apogee_km":463.58937163867,"semimajor_km":6840.8582667246,"source":"CELESTRAK","updated_at":"2026-09-21T09:00:35.360087Z"}}}